[[{"header":{"parameterUnit":"m.s-1","parameterCategory":1,"la1":30.2991,"la2":30.254,"lo1":-89.0895,"lo2":-89.0444,"dy":0.0017,"dx":0.0017,"nx":28,"ny":28,"refTime":"2023-11-04T09:00:00:Z","depth":0,"parameterNumber":2,"parameterNumberName":"U-component_of_WINDS"},"data":[0,0,0,0,0,0,0,0,0,0,0,0,0,0,0,0,0,0,0,0,0,0,0,0,0,0,0,0,0,0,0,0,0,0,0,0,0,0,0,0,0,0,0,0,0,0,0,0,0,0,0,0,0,0,0,0,0,0,0.0687,0.0686,0,0.0598,0.0597,0.0596,0.0516,0.0515,0.0514,0.0513,0.0421,0.0419,0.0417,0,0,0,0,0,0,0,0,0,0,0,0,0,0.0784,0.0783,0.0687,0.0686,0.0685,0.0598,0.0597,0.0596,0.0516,0.0515,0.0513,0.0512,0.0421,0.0419,0.0417,0,0,0,0,0,0,0,0,0,0,0,0,0,0.0723,0.0782,0.0687,0.0634,0.0629,0.0599,0.0597,0.0596,0.0516,0.0515,0.0513,0.0512,0.0422,0.0419,0.0417,0.0432,0,0,0.041,0.0409,0,0,0,0,0,0,0,0,0.0727,0.072,0.0643,0.0638,0.0631,0.0566,0.0597,0.0541,0.0516,0.0559,0.0513,0.0511,0.047,0.0464,0.045,0.0427,0.0423,0.041,0.0408,0.0407,0.0407,0,0,0,0,0,0,0,0.0731,0.0723,0.0652,0.0642,0.0635,0.0614,0.0604,0.0586,0.0524,0.0555,0.0549,0.054,0.0467,0.0453,0.0447,0.0422,0.041,0.0408,0.0406,0.0405,0.0405,0.0406,0,0,0,0,0,0,0.0744,0.0727,0.0654,0.0649,0.0677,0.0614,0.0602,0.0589,0.0524,0.0512,0.0541,0.0536,0.0457,0.045,0.0444,0.0456,0.0407,0.0405,0.0404,0.0404,0.0405,0.0407,0,0,0,0,0,0,0.0746,0.0738,0.0658,0.0686,0.0675,0.0614,0.0599,0.0588,0.0574,0.0513,0.0501,0.0538,0.0456,0.0447,0.0435,0.0451,0.0404,0.0402,0.0402,0.0404,0.0406,0.048,0,0,0,0,0,0,0.0749,0.074,0.0745,0.0687,0.0674,0.0652,0.06,0.0587,0.057,0.0563,0.0507,0.0497,0.0454,0.0439,0.0433,0.0447,0.04,0.04,0.0403,0.0405,0.0476,0.0485,0.0492,0,0,0,0,0,0.0753,0.0769,0.0746,0.0737,0.0679,0.0653,0.0645,0.0596,0.0572,0.0576,0.0537,0.0499,0.0451,0.0438,0.0431,0.0445,0.0399,0.0402,0.0405,0.0473,0.0483,0.0492,0,0,0,0,0,0,0.083,0.0761,0.0734,0.0732,0.0699,0.0639,0.0643,0.0609,0.0581,0.0576,0.0516,0.0504,0.0498,0.047,0.0458,0.0455,0.0419,0.0421,0.0473,0.0483,0.0491,0.0497,0.0398,0,0,0,0,0,0.0847,0.0832,0.0772,0.0776,0.0761,0.0705,0.0692,0.0657,0.062,0.0606,0.0565,0.0531,0.0507,0.0494,0.0469,0.0472,0.0458,0.0478,0.0486,0.0492,0.0495,0.0493,0.0501,0.0417,0.0417,0.0417,0,0,0.0882,0.0842,0.0836,0.0791,0.0761,0.0746,0.0694,0.0681,0.0668,0.0603,0.0589,0.0559,0.0516,0.0511,0.0507,0.0487,0.0514,0.0496,0.0502,0.05,0.0497,0.0505,0.0512,0.0419,0.0419,0.0418,0,0,0.0937,0.0906,0.0905,0.0876,0.0832,0.0795,0.0795,0.074,0.0718,0.0703,0.0653,0.0638,0.06,0.0571,0.0551,0.0595,0.0558,0.0588,0.063,0.0629,0.0635,0.0641,0.0656,0.0662,0.0591,0.0591,0.0591,0,0.0985,0.0961,0.0909,0.0899,0.088,0.082,0.0819,0.0793,0.0743,0.0731,0.071,0.0661,0.0627,0.0615,0.0625,0.0611,0.0609,0.0594,0.0639,0.0644,0.0648,0.0662,0.0667,0.0595,0.0594,0.0594,0.0594,0,0.1023,0.1007,0.1011,0.0965,0.0946,0.0941,0.0887,0.0874,0.0841,0.0806,0.0791,0.0749,0.0715,0.0709,0.0676,0.0691,0.068,0.065,0.0613,0.0661,0.0673,0.0677,0.06,0.0599,0.0598,0.0597,0,0,0.1124,0.1049,0.1051,0.1029,0.0975,0.0962,0.0953,0.0919,0.0909,0.0877,0.0867,0.0836,0.0807,0.0785,0.0748,0.0748,0.0784,0.0717,0.0715,0.073,0.0797,0.082,0.0827,0.0759,0.076,0.076,0.08,0,0.117,0.1151,0.1103,0.1099,0.1083,0.1026,0.1018,0.0984,0.095,0.0931,0.0894,0.0873,0.0837,0.0823,0.082,0.078,0.0796,0.0777,0.0749,0.0748,0.0761,0.0833,0.0857,0.0897,0.0804,0.0805,0.0806,0,0.1221,0.1192,0.1186,0.1133,0.1124,0.1118,0.1083,0.1066,0.1026,0.1001,0.0977,0.0936,0.0922,0.0889,0.0868,0.0856,0.0842,0.0821,0.0821,0.0816,0.078,0.0829,0.0908,0.0914,0.0812,0.0812,0.0811,0,0.1295,0.1254,0.1245,0.1228,0.1166,0.1163,0.1137,0.1095,0.1078,0.1047,0.1035,0.1003,0.0986,0.0962,0.0913,0.0893,0.0898,0.086,0.0877,0.0878,0.088,0.0881,0.0957,0.0872,0.0872,0.0872,0.0872,0,0.1351,0.1349,0.1278,0.1272,0.1268,0.1213,0.1211,0.1179,0.1142,0.1129,0.1078,0.1066,0.1003,0.0983,0.0945,0.0934,0.0927,0.0906,0.0896,0.091,0.0913,0.09,0.0896,0.0873,0.0873,0.0873,0.0872,0,0.1433,0.1385,0.1371,0.1313,0.1299,0.1298,0.1248,0.124,0.1204,0.1187,0.118,0.1123,0.1097,0.1047,0.1007,0.0981,0.0979,0.0961,0.0993,0.0986,0.1005,0.1004,0.1076,0.1082,0.0994,0.0995,0.0995,0,0.1472,0.1469,0.1411,0.1398,0.1374,0.1355,0.1337,0.1283,0.1266,0.122,0.1217,0.1188,0.1161,0.1123,0.1078,0.1047,0.1028,0.1055,0.1023,0.1037,0.1027,0.1028,0.1027,0.1062,0.1063,0.1064,0.1065,0,0.1545,0.1521,0.1498,0.1467,0.1447,0.1419,0.1389,0.1381,0.1319,0.1303,0.1277,0.1256,0.1216,0.1187,0.115,0.1121,0.1083,0.1076,0.1078,0.1093,0.1111,0.1101,0.1012,0.1074,0.1073,0.1073,0.1072,0.1072,0.1606,0.1601,0.1559,0.1535,0.1506,0.1479,0.1468,0.143,0.1408,0.1371,0.134,0.1316,0.1275,0.122,0.1195,0.1174,0.1156,0.1159,0.116,0.1161,0.1167,0.1115,0.1167,0.1167,0.1167,0.1166,0.1166,0,0.1676,0.1647,0.1625,0.1584,0.1564,0.153,0.1495,0.148,0.146,0.1425,0.1401,0.137,0.1342,0.1294,0.1261,0.1254,0.1236,0.1247,0.1247,0.1241,0.1186,0.1187,0.1263,0.1263,0.1263,0.1263,0.1263,0.1263,0.1711,0.17,0.1671,0.1646,0.1615,0.1592,0.1575,0.1549,0.152,0.1489,0.1465,0.1434,0.1394,0.1358,0.133,0.1316,0.1306,0.1324,0.1305,0.1254,0.1245,0.1236,0.1237,0.1322,0.1322,0.1361,0.1362,0.1362]},{"header":{"parameterUnit":"m.s-1","parameterCategory":1,"la1":30.2991,"la2":30.254,"lo1":-89.0895,"lo2":-89.0444,"dy":0.0017,"dx":0.0017,"nx":28,"ny":28,"refTime":"2023-11-04T09:00:00:Z","depth":0,"parameterNumber":3,"parameterNumberName":"V-component_of_WINDS"},"data":[0,0,0,0,0,0,0,0,0,0,0,0,0,0,0,0,0,0,0,0,0,0,0,0,0,0,0,0,0,0,0,0,0,0,0,0,0,0,0,0,0,0,0,0,0,0,0,0,0,0,0,0,0,0,0,0,0,0,0.1872,0.187,0,0.1716,0.1714,0.1712,0.1626,0.1626,0.1626,0.1626,0.1463,0.1459,0.1455,0,0,0,0,0,0,0,0,0,0,0,0,0,0.2095,0.2091,0.1872,0.187,0.1868,0.1716,0.1714,0.1711,0.1626,0.1626,0.1626,0.1625,0.1465,0.146,0.1455,0,0,0,0,0,0,0,0,0,0,0,0,0,0.1974,0.209,0.1873,0.1807,0.18,0.1716,0.1714,0.1711,0.1626,0.1626,0.1626,0.1625,0.1466,0.146,0.1454,0.1423,0,0,0.1435,0.1433,0,0,0,0,0,0,0,0,0.1981,0.1966,0.1819,0.1812,0.1803,0.169,0.1733,0.1614,0.1626,0.1692,0.1625,0.1625,0.1539,0.1527,0.1498,0.1415,0.1408,0.1435,0.1431,0.1428,0.1427,0,0,0,0,0,0,0,0.199,0.1973,0.181,0.1817,0.1807,0.1785,0.1768,0.171,0.1619,0.1686,0.168,0.1663,0.1535,0.1504,0.1494,0.1406,0.1435,0.143,0.1426,0.1423,0.1288,0.1288,0,0,0,0,0,0,0.2009,0.198,0.1815,0.1805,0.1893,0.1782,0.1762,0.1727,0.162,0.1603,0.1663,0.1659,0.1515,0.1501,0.1488,0.1443,0.1429,0.1423,0.1419,0.1288,0.1288,0.1288,0,0,0,0,0,0,0.2014,0.1995,0.1821,0.1891,0.1867,0.1778,0.1739,0.1724,0.1693,0.1602,0.1585,0.1649,0.1514,0.1496,0.1439,0.1436,0.142,0.1414,0.1288,0.1288,0.1288,0.1354,0,0,0,0,0,0,0.2021,0.1997,0.1985,0.1891,0.1864,0.1777,0.1739,0.1721,0.1683,0.1677,0.1584,0.1569,0.1512,0.1449,0.1433,0.1427,0.141,0.1288,0.1288,0.1288,0.1352,0.1356,0.136,0,0,0,0,0,0.2029,0.201,0.1985,0.1965,0.1847,0.1777,0.1761,0.1697,0.1683,0.167,0.1611,0.1571,0.1439,0.1444,0.1425,0.1418,0.1287,0.1288,0.1288,0.135,0.1355,0.136,0,0,0,0,0,0,0.2105,0.1996,0.1968,0.1917,0.1857,0.1762,0.1743,0.1706,0.1647,0.1644,0.1567,0.1546,0.1497,0.1451,0.1459,0.1381,0.1359,0.1356,0.1412,0.1417,0.1421,0.1433,0.1404,0,0,0,0,0,0.2116,0.2069,0.1976,0.1941,0.1912,0.1833,0.18,0.1757,0.1691,0.1665,0.1602,0.1539,0.1482,0.1447,0.1391,0.1345,0.1323,0.133,0.1335,0.1339,0.1336,0.1308,0.1309,0.1289,0.1289,0.1289,0,0,0.2138,0.2073,0.2048,0.1955,0.1903,0.1855,0.1812,0.1764,0.1727,0.1657,0.1599,0.1551,0.1475,0.1424,0.1398,0.1384,0.1337,0.1339,0.1343,0.1338,0.1308,0.131,0.1312,0.1289,0.1289,0.1289,0,0,0.2154,0.21,0.2064,0.2013,0.1935,0.1883,0.1875,0.1785,0.1751,0.1692,0.1638,0.1593,0.1498,0.1447,0.1408,0.1404,0.1365,0.1387,0.141,0.1383,0.1384,0.1385,0.1383,0.1383,0.1386,0.1386,0.1386,0,0.2191,0.2117,0.2051,0.2005,0.1965,0.19,0.1863,0.1816,0.1724,0.1697,0.1684,0.1563,0.1508,0.1443,0.1442,0.1413,0.14,0.1397,0.139,0.139,0.139,0.1387,0.1386,0.1389,0.1388,0.1388,0.1388,0,0.2166,0.2116,0.2097,0.2009,0.1967,0.1926,0.1853,0.1818,0.1778,0.1727,0.1667,0.1598,0.1526,0.1508,0.1468,0.1437,0.1431,0.1405,0.1381,0.1396,0.1392,0.139,0.1393,0.1392,0.1391,0.1391,0,0,0.2226,0.2102,0.2096,0.2055,0.1964,0.1923,0.1879,0.1809,0.178,0.1719,0.1679,0.16,0.1575,0.1532,0.1485,0.1462,0.1462,0.1438,0.1435,0.1444,0.1422,0.1442,0.1441,0.1436,0.1435,0.1435,0.1428,0,0.2228,0.2145,0.2084,0.2025,0.1977,0.1914,0.1875,0.1815,0.1766,0.1717,0.1663,0.1608,0.158,0.1553,0.1527,0.1468,0.1456,0.1467,0.1397,0.1395,0.1417,0.1439,0.146,0.1457,0.1426,0.1425,0.1425,0,0.2219,0.216,0.2097,0.201,0.1987,0.1954,0.1884,0.1839,0.1769,0.1735,0.1686,0.1638,0.1588,0.1569,0.1498,0.1507,0.1474,0.1441,0.1439,0.143,0.1411,0.143,0.1454,0.1454,0.1422,0.1422,0.1423,0,0.2268,0.2172,0.2121,0.2089,0.1987,0.1964,0.192,0.185,0.1812,0.1751,0.1725,0.1659,0.1623,0.1573,0.1508,0.1501,0.1443,0.1419,0.1412,0.1414,0.1402,0.1404,0.1422,0.1383,0.1383,0.1383,0.1383,0,0.2276,0.224,0.2142,0.2111,0.2067,0.1997,0.1956,0.1906,0.1844,0.1802,0.1743,0.1704,0.1622,0.1572,0.1521,0.147,0.1454,0.1424,0.1411,0.1429,0.1433,0.1406,0.1404,0.1383,0.1383,0.1383,0.1383,0,0.2323,0.2257,0.2197,0.2105,0.2081,0.2053,0.1974,0.1941,0.1889,0.1836,0.1819,0.1737,0.1676,0.1606,0.1523,0.1488,0.144,0.1421,0.1464,0.1456,0.1452,0.1454,0.1453,0.1449,0.1415,0.1415,0.1416,0,0.2333,0.2303,0.2208,0.2176,0.2134,0.2082,0.2043,0.1972,0.1933,0.1851,0.1827,0.1762,0.1706,0.1612,0.1544,0.1479,0.1458,0.1462,0.1447,0.1466,0.1457,0.1459,0.1455,0.1466,0.1467,0.1467,0.1468,0,0.2357,0.2325,0.2271,0.2205,0.216,0.2104,0.2047,0.2023,0.194,0.19,0.1837,0.1794,0.1708,0.1643,0.157,0.1524,0.1482,0.1473,0.1468,0.1486,0.1511,0.1497,0.1474,0.1473,0.1473,0.1472,0.1472,0.1472,0.2384,0.2355,0.2283,0.2225,0.2174,0.2121,0.2085,0.2028,0.1975,0.19,0.1861,0.1799,0.1728,0.1626,0.1581,0.153,0.1517,0.1509,0.1507,0.1506,0.1511,0.152,0.1517,0.1517,0.1516,0.1516,0.1516,0,0.2405,0.2355,0.2302,0.2223,0.2177,0.2142,0.2076,0.2039,0.1985,0.1924,0.187,0.1797,0.1734,0.1662,0.1594,0.1567,0.1546,0.1552,0.1553,0.1543,0.1528,0.1539,0.157,0.157,0.157,0.157,0.157,0.157,0.241,0.2357,0.2317,0.2239,0.2189,0.2128,0.2093,0.2044,0.1994,0.1916,0.1864,0.1817,0.175,0.1677,0.1618,0.1598,0.1575,0.1586,0.1561,0.1548,0.1544,0.1539,0.1549,0.1582,0.1582,0.1579,0.1579,0.1579]}]]